Home   Weather   Sanikiluaq   Past weeks

Flag for Canada Past Weather in Sanikiluaq, Nunavut, Canada — Yesterday and Last 2 Weeks

30 °F

Light snow. Overcast.

Feels Like: 18 °F
Forecast: 34 / 37 °F
Wind: 17 mph from South

Location: Kuujjuarapik

Current Time: Oct 28, 2016 at 1:51:56 PM

Latest Report: Oct 28, 2016 at 1:00 PM

Visibility: 9 mi

Pressure: 29.84 "Hg

Humidity: 80%

Dew Point: 25 °F

Location of SanikiluaqLocation

Past Weather in Sanikiluaq — Graph


Sanikiluaq Temperature Yesterday

Maximum temperature yesterday: 32 °F (at 3:00 PM)
Minimum temperature yesterday: 27 °F (at 12:00 AM)
Average temperature yesterday: 28 °F

High & Low Weather Summary for the Past Weeks

High46 °F (Oct 15, 10:57 PM)100% (Oct 15, 3:00 PM)30.55 "Hg (Oct 15, 3:00 PM)
Low23 °F (Oct 25, 6:00 AM)51% (Oct 25, 3:00 PM)29.30 "Hg (Oct 15, 10:57 PM)
Average33 °F82%29.98 "Hg
* Reported Oct 13 12:00 PM — Oct 28 12:00 PM, Sanikiluaq, Weather by CustomWeather, © 2016

Note: Actual official high and low records may vary slightly from our data, if they occured in-between our weather recording intervals... More about our weather records


Sanikiluaq Weather History for the Previous 24 Hours

Scroll right to see more
Time TempWeatherWind HumidityBarometerVisibility
12:00 PM
Fri, Oct 28
30 °FLight snow. More clouds than sun.17 mph86%29.86 "Hg9 mi
11:46 AM30 °FLight snow. Overcast.17 mph86%29.85 "Hg6 mi
11:00 AM30 °FLight snow. Overcast.18 mph80%29.86 "Hg2 mi
10:00 AM28 °FLight snow. Mostly cloudy.21 mph86%29.88 "Hg2 mi
9:59 AM28 °FLight snow. Mostly cloudy.21 mph86%29.88 "Hg2 mi
9:00 AM28 °FMostly cloudy.17 mph80%29.94 "Hg9 mi
8:00 AM28 °FLight snow. Overcast.22 mph80%29.96 "Hg9 mi
7:00 AM27 °FLight snow. Overcast.17 mph86%29.98 "Hg9 mi
6:56 AM27 °FLight snow. Mostly cloudy.18 mph86%29.98 "Hg9 mi
6:02 AM27 °FMostly cloudy.20 mph80%29.99 "Hg9 mi
5:00 AM27 °FOvercast.15 mph80%30.05 "Hg9 mi
4:00 AM27 °FOvercast.17 mph80%30.09 "Hg9 mi
3:00 AM25 °FOvercast.13 mph80%30.10 "Hg9 mi
2:00 AM25 °FOvercast.14 mph80%30.13 "Hg9 mi
1:00 AM27 °FOvercast.16 mph80%30.15 "Hg9 mi
12:00 AM27 °FOvercast.12 mph80%30.18 "Hg9 mi
11:00 PM
Thu, Oct 27
27 °FOvercast.13 mph80%30.19 "Hg9 mi
10:00 PM28 °FOvercast.15 mph74%30.23 "Hg9 mi
9:01 PM27 °FPassing clouds.7 mph80%30.24 "Hg9 mi
8:49 PM27 °FPassing clouds.9 mph80%30.24 "Hg9 mi
8:00 PM27 °FOvercast.10 mph74%30.26 "Hg9 mi
7:00 PM28 °FMostly cloudy.12 mph74%30.28 "Hg9 mi
6:00 PM28 °FOvercast.15 mph74%30.29 "Hg9 mi
5:50 PM28 °FOvercast.14 mph74%30.29 "Hg9 mi
5:00 PM30 °FOvercast.13 mph69%30.29 "Hg9 mi
4:00 PM30 °FScattered clouds.13 mph75%30.32 "Hg9 mi
3:00 PM32 °FMostly cloudy.13 mph75%30.33 "Hg9 mi
2:00 PM30 °FOvercast.13 mph80%30.35 "Hg9 mi
1:00 PM30 °FOvercast.15 mph86%30.37 "Hg9 mi
Weather by CustomWeather, © 2016

See weather overviewHow to use our weather pages